Omar Warda

Chief Scout - Smouha
22 Feb 2027
Monday
Process

Personality

Adaptability (6) Ambition (15) Controversy (4) Loyalty (9) Pressure (19) Professionalism (13) Sportsmanship (5) Temperament (19)

Profile

Coaching Style Democratic
License Continental C
Determination 8
Man Management 10
Motivating 3
Discipline 8
Job Satisfaction
100%
Fatigue
0%
Role Chief Scout
Wage 18.6K p/w
Contract 14.03.2030

Performance

Behaviour Good
Training Effectiveness
43%
Player Development
55%
Injury Prevention
25%
Tactical Implementation
55%

Recent Events

Assessed a player now
Attended a recruitment meeting now
Recommended a transfer target now
Assessed a player now
Assessed a player now
Assessed a player 7d ago
Observed a match 7d ago
Assessed a player 7d ago

Currently Monitoring

117
Player Club Status Ability Confidence Watched Last Observed Latest Vote
Sory Kaba Al Dhafra Active 122 / 123 40% 5 21.02.2027 -
Ekain Orobengoa Real Sociedad Active 107 / 115 40% 1 18.02.2027 -
Carlos Guerreño Najran Active 104 / 83 40% 1 18.02.2027 -
Darío Poveda Nea Salamis Active 93 / 103 40% 1 18.02.2027 -
Kahraba ENPPI Active 115 / 100 40% 2 17.02.2027 -
Danyil Alefirenko Chornomorets Active 113 / 96 40% 1 17.02.2027 -
Dadi Mouaki CS Constantine Active 92 / 98 40% 1 17.02.2027 -
Silas Nwankwo Police Union Active 89 / 104 40% 2 15.02.2027 -
Stephen Odey Ittihad Active 121 / 111 40% 3 15.02.2027 -
Ibrahim Al Menhali Al Shaab Active 95 / 114 40% 1 15.02.2027 -
Kwame Opoku Asante Kotoko Active 109 / 99 40% 3 14.02.2027 -
Isaac Tshibangu Emirates Club Active 96 / 119 40% 1 14.02.2027 -
Karim El Berkaoui Al Dhafra Active 134 / 114 40% 4 11.02.2027 -
Ilja Safronov Rotor Active 101 / 104 40% 1 11.02.2027 -
Anatole Abang USM Alger Active 121 / 99 40% 1 11.02.2027 -
Daniel Udoh Salford City Active 109 / 86 40% 1 10.02.2027 -
Matty Stevens AFC Wimbledon Active 102 / 102 40% 1 10.02.2027 -
Alexandr Yushin Torpedo Moscow Active 103 / 114 40% 2 09.02.2027 -
Morad Khodari Al-Wehda Active 85 / 79 40% 1 09.02.2027 -
Darwin González Al-Wehda Active 128 / 109 40% 1 06.02.2027 -
Marcus Browne AFC Wimbledon Active 110 / 98 40% 1 02.02.2027 -
Hlompho Modiba Black Aces Active 81 / 78 40% 1 02.02.2027 -
Rafael Arace Najran Active 116 / 116 40% 1 02.02.2027 -
Sam Nombe Milton Keynes Dons Active 107 / 110 40% 3 01.02.2027 -
Yurii Klymchuk Kolos Active 104 / 117 40% 1 01.02.2027 -
Kagiso Malinga Bidvest Wits Active 98 / 99 40% 1 31.01.2027 -
Jerome Karelse Golden Arrows Active 91 / 92 40% 2 29.01.2027 -
John Okoye Ebuka Ittihad Active 129 / 123 40% 2 28.01.2027 -
Brandon Hanlan Doncaster Rovers Active 104 / 104 40% 1 28.01.2027 -
Alimi Sikiru JS Saoura Active 110 / 107 40% 1 28.01.2027 -
Andrii Khoma Chornomorets Active 94 / 103 40% 1 25.01.2027 -
Louis Appéré Cambridge United Active 86 / 111 40% 1 25.01.2027 -
Milán Tóth Vasas Active 110 / 110 40% 1 22.01.2027 -
Chris Bedia Al Nasr Active 120 / 125 40% 1 22.01.2027 -
Midana Cassamá Portimonense Active 94 / 99 40% 1 21.01.2027 -
Moses Twum Haras El Hodoud Active 109 / 105 40% 1 20.01.2027 -
Solly Khunyedi Bloemfontein Celtic Active 102 / 96 40% 1 20.01.2027 -
Dániel Lukács Puskas Akademia Active 100 / 119 40% 1 19.01.2027 -
Hesham Mostafa Al Ahly Active 84 / 82 65% 1 06.01.2027 Approve
Yasser El Wensh Masr El Makasa Active 96 / 99 40% 5 31.12.2026 -
Johnly Yfeko Exeter City Active 107 / 95 40% 4 31.12.2026 Monitor
Lewis Richards Crawley Town Active 89 / 95 40% 1 31.12.2026 -
Dean Campbell Northampton Town Active 98 / 123 40% 2 30.12.2026 -
Vitalii Kholod Karpaty Active 115 / 126 40% 3 28.12.2026 -
Jean Pedroso Karpaty Active 102 / 125 40% 1 28.12.2026 -
Sinoxolo Kwayiba Chippa United Active 120 / 107 40% 1 28.12.2026 -
Andile Zungu Platinum Stars Active 103 / 99 40% 3 27.12.2026 -
Nohan Kenneh Tranmere Rovers Active 98 / 90 40% 1 27.12.2026 -
Mahmoud El Wensh Masr El Makasa Active 96 / 91 40% 4 26.12.2026 -
Serafim Al Dhafra Active 113 / 110 40% 3 26.12.2026 -
Lucas Pimenta Al Wahda Active 116 / 102 40% 2 26.12.2026 -
Hamdi Akujobi Jomo Cosmos Active 117 / 110 40% 1 23.12.2026 -
Liam Bennett Cambridge United Active 110 / 84 40% 1 23.12.2026 -
Majed Hussain Al Shaab Active 101 / 109 40% 1 23.12.2026 -
Ammar Hamdy ENPPI Active 114 / 103 40% 4 21.12.2026 -
Rafael Profini Metalist Active 117 / 114 40% 1 21.12.2026 -
Oleksandr Yatsyk Metalist Active 118 / 133 40% 1 21.12.2026 -
Gláuber Al Nasr Active 121 / 124 40% 2 20.12.2026 -
Lee O'Connor Tranmere Rovers Active 96 / 90 40% 1 20.12.2026 -
Jonata Machado Al-Ta'ee Active 96 / 87 40% 4 19.12.2026 -
Alan Tsaraev Arsenal Tula Active 106 / 113 40% 1 19.12.2026 -
Harry Williams Walsall Active 113 / 93 40% 1 14.12.2026 -
Siyanda Msani University of Pretoria Active 94 / 92 40% 4 13.12.2026 -
Canaria Wadi Degla Active 99 / 95 40% 2 13.12.2026 -
Richard Akonnor Al Jazira Active 105 / 121 40% 1 13.12.2026 -
Mpho Mathebula Bloemfontein Celtic Active 104 / 118 40% 3 12.12.2026 -
Lewis Freestone Stevenage Active 118 / 105 40% 2 12.12.2026 -
Semelo Gueï JS Saoura Active 91 / 87 40% 2 10.12.2026 -
Mackenzie Hunt Baniyas Rejected 110 / 100 40% 1 09.12.2026 Needs More Info
Ezeckiel Noumonvi Al Dhafra Active 117 / 123 40% 1 06.12.2026 -
Mohammad Ghorbani Al Wahda Active 101 / 119 40% 4 05.12.2026 -
Jay Matete Milton Keynes Dons Active 118 / 121 40% 1 05.12.2026 -
Jacob Bedeau Notts County Active 112 / 113 40% 1 05.12.2026 -
Léo Azevedo Sharjah Active 109 / 109 40% 1 04.12.2026 -
Nicolás Arévalo Metalist Active 106 / 133 40% 1 04.12.2026 -
Moha Karpaty Active 110 / 129 40% 1 03.12.2026 -
Tomasz Wójtowicz Lechia Active 97 / 104 40% 1 03.12.2026 -
Maksym Smiian Veres Active 93 / 98 40% 1 02.12.2026 -
Majid Rashid Sharjah Active 114 / 96 40% 4 01.12.2026 -
Fouad Kermiche Paradou Active 92 / 87 40% 1 01.12.2026 -
Achraf Dari Al Ahly Active 120 / 118 40% 1 01.12.2026 -
Vladimir Miletić Slavia Sofia Active 109 / 107 40% 1 30.11.2026 -
Cemran Dansin Orlando Pirates Active 111 / 123 40% 1 30.11.2026 -
Gustavo Mueller Al Nasr Active 117 / 122 40% 3 28.11.2026 -
Ali Amriche Olympique Akbou Active 99 / 107 40% 2 28.11.2026 -
Taha Yassine Tahar Paradou Active 104 / 104 40% 4 26.11.2026 -
Khaled Al-Bloushi Dibba Active 106 / 114 40% 1 26.11.2026 -
Simphiwe Selepe Orlando Pirates Active 101 / 133 40% 2 25.11.2026 -
Youssef Limouri Petrojet Active 95 / 112 40% 2 24.11.2026 -
Ali Suqrat Al Shaab Active 104 / 115 40% 1 24.11.2026 -
Hadji Chekal CS Constantine Active 91 / 91 40% 1 23.11.2026 -
Khalfan Nader Al Shaab Active 86 / 95 40% 2 22.11.2026 -
Riyane Akacem JS Saoura Active 98 / 101 40% 3 21.11.2026 -
Ousmane Coumbassa MC Oran Active 101 / 113 40% 2 20.11.2026 -
Mahamadou Camara Baniyas Active 110 / 106 40% 3 20.11.2026 -
Bader Munshi Al-Ra'ed Active 97 / 94 40% 1 20.11.2026 -
Tlou Nkwe Polokwane City Active 86 / 83 40% 1 19.11.2026 -
Roger Manríque Anorthosis Active 94 / 99 40% 1 18.11.2026 -
Mahmoud Bentayg Zamalek Active 111 / 113 40% 1 16.11.2026 -
Francesco Amatucci Cittadella Active 118 / 122 40% 1 14.11.2026 -
Ahmed Mohamed Kerroum MC Oran Active 111 / 112 40% 2 10.11.2026 -
Markus Soomets IK Start Active 122 / 119 40% 2 09.11.2026 -
Juan Pablo De la Reta Maipú Active 119 / 114 40% 2 07.11.2026 -
Valentín Fenoglio Estudiantes Active 115 / 99 40% 1 07.11.2026 -
Rivaldo Khune Black Aces Active 89 / 93 40% 1 06.11.2026 -
Sander Christiansen Sarpsborg 08 Active 110 / 108 40% 1 04.11.2026 -
Samsondin Ouro DAC Dunajska Streda Active 102 / 98 40% 1 03.11.2026 -
Steve Mvoué IK Start Active 112 / 109 40% 1 31.10.2026 -
Mohamed Shehata Zamalek Active 96 / 101 40% 2 29.10.2026 -
Mory Touré Ghazl El Mahalla Active 100 / 101 40% 2 19.10.2026 -
Lucas Richarte Temperley Active 107 / 91 40% 1 18.10.2026 -
Khalifa Al-Hammadi Al Jazira Active 104 / 98 40% 1 14.10.2026 -
Abdulla Hamad Al Wahda Active 109 / 127 40% 2 13.10.2026 -
Mostafa El Aash El Masry Active 99 / 113 40% 1 07.10.2026 -
Kyle Jurgens Maritzburg United Active 95 / 104 40% 1 09.09.2026 -
Mostafa Berkane CS Constantine Active 103 / 87 40% 1 07.09.2026 -
Khaled Al-Sumairi Damac Active 86 / 97 40% 1 04.08.2026 -